Tracking 25707 objects as of 29-Jun-2022
HD Live streaming from Space Station
objects crossing your sky now

BLOCK DM-SL R/B

Track BLOCK DM-SL R/B now!


NORAD ID: 36107
Int'l Code: 2009-067B
Perigee: 10,071.6 km
Apogee: 35,676.0 km
Inclination: 12.6 °
Period: 829.5 minutes
Semi major axis: 29244 km
RCS: 12.5893 m2 (large)
Launch date: November 30, 2009
Source: Commonwealth of Independent States (former USSR) (CIS)
Launch site: TYURATAM MISSILE AND SPACE COMPLEX (TTMTR)

Note: This is a ROCKET BODY
aabbcc
Your satellite tracking list
Your tracking list is empty




NASA's NSSDC Master Catalog

Two Line Element Set (TLE):
1 36107U 09067B   22180.48112590 -.00000095  00000-0  00000-0 0  9997
2 36107  12.5991  45.7891 4377595 316.5135  15.7126  1.73592309 79764
Source of the keplerian elements: AFSPC